Weather History for KPHP - September, 2012

Change the Weather History Date:

Monday, September 10, 2012

  Actual Average Record
Temperature  
Mean Temperature 84 °F 65 °F  
Max Temperature 103 °F 80 °F 103 °F (1982)
Min Temperature 65 °F 49 °F 28 °F (1959)
Degree Days  
Heating Degree Days 0 4  
Month to date heating degree days 3 27  
Since 1 July heating degree days 8 52  
Cooling Degree Days 19 3  
Month to date cooling degree days 79 45  
Year to date cooling degree days 1190 780  
Growing Degree Days 33 (Base 50)    
Moisture  
Dew Point 34 °F    
Average Humidity 22    
Maximum Humidity 34    
Minimum Humidity 9    
Precipitation  
Precipitation 0.00 in 0.06 in 0.78 in (1989)
Month to date precipitation T 0.51  
Year to date precipitation 5.99 13.89  
Sea Level Pressure  
Sea Level Pressure 29.62 in    
Wind  
Wind Speed 7 mph (WSW)    
Max Wind Speed 22 mph    
Max Gust Speed 30 mph    
Visibility 10 miles    
Events      
T = Trace of Precipitation, MM = Missing Value Source: NWS Daily Summary

Daily Weather History Graph

Daily Weather History Graph

Search for Another Location

Airport or City:

Trip Planner

Search our weather history database for the weather conditions in past years. The results will help you decide how hot, cold, wet, or windy it might be!

Date:

Astronomy

Sep. 10, 2012 Rise Set
Actual Time 6:20 AM MDT 7:05 PM MDT
Civil Twilight 5:51 AM MDT 7:34 PM MDT
Nautical Twilight 5:16 AM MDT 8:08 PM MDT
Astronomical Twilight 4:40 AM MDT 8:44 PM MDT
Moon 12:34 AM MDT (9/10) 3:44 PM MDT (9/10)
Length of Visible Light 13h 42m
Length of Day
12h 44m
Waning Crescent, 29% of the Moon is Illuminated
Sep 10
Waning Crescent
Sep 15
New
Sep 22
First Quarter
Sep 29
Full
Oct 8
Last Quarter

Hourly Weather History & Observations

Time (MDT) Temp. Dew Point Humidity Pressure Visibility Wind Dir Wind Speed Gust Speed Precip Events Conditions
12:55 AM 75.0 °F 37.9 °F 26% 29.73 in 10.0 mi SSW 16.1 mph 25.3 mph N/A   Clear
1:55 AM 75.0 °F 37.0 °F 25% 29.70 in 10.0 mi South 18.4 mph 26.5 mph N/A   Clear
2:55 AM 71.1 °F 37.0 °F 29% 29.69 in 10.0 mi WSW 5.8 mph - N/A   Clear
3:55 AM 70.0 °F 35.1 °F 28% 29.67 in 10.0 mi SW 11.5 mph - N/A   Clear
4:55 AM 71.1 °F 34.0 °F 26% 29.65 in 10.0 mi SSW 10.4 mph - N/A   Clear
5:55 AM 70.0 °F 34.0 °F 27% 29.64 in 10.0 mi SSW 13.8 mph - N/A   Clear
6:55 AM 64.9 °F 35.1 °F 33% 29.66 in 10.0 mi North 3.5 mph - N/A   Clear
7:55 AM 70.0 °F 36.0 °F 29% 29.65 in 10.0 mi WNW 4.6 mph - N/A   Clear
8:55 AM 77.0 °F 35.1 °F 22% 29.65 in 10.0 mi WSW 10.4 mph - N/A   Clear
9:55 AM 86.0 °F 33.1 °F 15% 29.65 in 10.0 mi WSW 13.8 mph - N/A   Clear
10:55 AM 91.9 °F 34.0 °F 13% 29.63 in 10.0 mi West 12.7 mph - N/A   Clear
11:55 AM 96.1 °F 30.9 °F 10% 29.62 in 10.0 mi West 6.9 mph - N/A   Clear
12:55 PM 100.9 °F 30.0 °F 8% 29.60 in 10.0 mi West 6.9 mph - N/A   Clear
1:55 PM 100.9 °F 32.0 °F 9% 29.58 in 10.0 mi Variable 3.5 mph - N/A   Clear
2:55 PM 102.0 °F 32.0 °F 9% 29.57 in 10.0 mi Variable 3.5 mph - N/A   Clear
3:55 PM 102.0 °F 33.1 °F 9% 29.56 in 10.0 mi SW 4.6 mph - N/A   Clear
4:55 PM 102.0 °F 32.0 °F 9% 29.55 in 10.0 mi South 5.8 mph - N/A   Clear
5:55 PM 97.0 °F 28.9 °F 9% 29.56 in 10.0 mi South 11.5 mph - N/A   Clear
6:55 PM 90.0 °F 30.0 °F 12% 29.57 in 10.0 mi South 3.5 mph - N/A   Clear
7:55 PM 84.0 °F 28.9 °F 14% 29.56 in 10.0 mi Calm Calm - N/A   Clear
8:55 PM 77.0 °F 30.9 °F 19% 29.58 in 10.0 mi WNW 5.8 mph - N/A   Clear
9:55 PM 81.0 °F 32.0 °F 17% 29.60 in 10.0 mi WNW 5.8 mph - N/A   Clear
10:55 PM 86.0 °F 43.0 °F 22% 29.58 in 10.0 mi Calm Calm - N/A   Clear
11:55 PM 82.0 °F 43.0 °F 25% 29.56 in 10.0 mi SSW 4.6 mph - N/A   Clear